Weather Roundup
Issued by NWS Chicago, IL

Home | Current Version | Previous Version | Text Only | Print | Product List | Glossary Off
Versions: 1 2 3 4 5 6 7 8 9 10 11 12 13 14 15 16 17 18 19 20 21 22 23 24 25 26 27 28 29 30 31 32 33 34 35 36 37 38 39 40 41 42 43 44 45 46 47 48 49 50

000
NZUS59 KLOT 181321
HRRLOT

CHICAGO AREA WEATHER ROUNDUP
NATIONAL WEATHER SERVICE CHICAGO/ROMEOVILLE IL
800 AM CDT SAT APR 18 2015

NOTE: "FAIR" INDICATES FEW OR NO CLOUDS BELOW 12,000 FEET WITH NO
SIGNIFICANT WEATHER AND/OR OBSTRUCTIONS TO VISIBILITY.

* THESE STATIONS ARE NOT UNDER NWS QUALITY CONTROL. THEY ALSO MAY NOT
  REPORT WEATHER SUCH AS PRECIPITATION OR FOG.

ILZ005-006-012>014-019>023-181400-
NORTHEAST ILLINOIS

CITY           SKY/WX    TMP DP  RH WIND       PRES   REMARKS
OHARE          PTSUNNY   64  46  52 NE8       30.04S
MIDWAY         MOSUNNY   66  50  56 N8        30.04S
AURORA         MOSUNNY   60  51  72 CALM      30.04S HAZE
LANSING*       SUNNY     60  49  67 CALM      30.04S
JOLIET*        PTSUNNY   62  54  75 CALM      30.04S
WAUKEGAN       SUNNY     53  40  61 N17G33    30.07R
DUPAGE AIRPORT SUNNY     61  52  72 N6        30.04S
WHEELING       MOSUNNY   62  44  51 NE16G25   30.07R
KANKAKEE*      MOSUNNY   58  51  77 CALM      30.05S
MORRIS*        PTSUNNY   58  50  74 CALM      30.02R
LEWIS AIRPORT* MOSUNNY   61  52  71 CALM      30.04S
NORTHERLY IS     N/A     64  44  48 N13         N/A
$$

WIZ051-052-058>065-066-070>072-181400-
SOUTHEAST WISCONSIN

CITY           SKY/WX    TMP DP  RH WIND       PRES   REMARKS
MILWAUKEE      MOSUNNY   46  34  62 N22G31    30.13R
KENOSHA*       SUNNY     53  40  61 NE21G26   30.10R
RACINE*        MOSUNNY   47  37  68 N20G31    30.12R
BURLINGTON     SUNNY     54  37  52 NE14G28   30.09R
WAUKESHA       SUNNY     52  34  50 NE21G31   30.13R
WEST BEND      MOSUNNY   46  34  61 NE20G26   30.14R
$$

INZ001>003-010>013-019-020-181400-
NORTHWEST INDIANA

CITY           SKY/WX    TMP DP  RH WIND       PRES   REMARKS
GARY*          MOSUNNY   63  45  51 CALM      30.05S
MICHIGAN CITY* NOT AVBL
RENSSELAER*    NOT AVBL
VALPARAISO     PTSUNNY   65  51  60 W7        30.05S
$$

LMZ740>746-181400-
SOUTHERN LAKE MICHIGAN

STATION/POSITION TIME  SKY/WX   TEMP WIND        PRES    VSBY
                                AIR  DIR/SP/G
                 (UTC)          (F)  (DEG/KT/KT) (MB)    (MI)
HARRISON CRIB    1300            61  350/ 16/ 17   N/A
BURNHAM HARBOR   1200            63  270/  6/ 11   N/A
CALUMET HARBOR   1200            61  250/  2/  4   N/A
BURNS HARBOR     1200            61  210/  6/  8 1017.6R
MICHIGAN CITY    1300            59  250/  3/  3   N/A
$$

ABBREVIATIONS USED IN REMARKS
   TC - TEMPERATURE IN CELSIUS
  WCI - WIND CHILL INDEX
   HX - HEAT INDEX
  VSB - VISIBILITY
$$


USA.gov is the U.S. government's official web portal to all federal, state and local government web resources and services.